SES-20

Last updated on Thu Nov 21 2024 00:02:44 GMT+0000 (Coordinated Universal Time)

1 53960U 22123A 24324.49540463 -.00000099 00000+0 00000+0 0 9990 2 53960 0.0116 55.3312 0000834 67.3081 11.6323 1.00273957 7773
UTC large
Height (km)
Speed (km/s)
/
Latitude / Longitude
Inclination (degrees)
Orbital Period (minutes)
Azimuth
Elevation
Range (km)
Doppler Factor

Next 0 passes for location: London (51.5072 / 0.1276)

Sorry there are no passes over London.